Milledgeville, GA

9:46 AM EDT on March 27, 2017 (GMT -0400)
Baldwin County

Weather History for KMLJ - August, 2013

Change the Weather History Date:

Saturday, August 24, 2013

  Actual Average (KOKZ) Record (KOKZ)
Temperature  
Mean Temperature 76 °F -  
Max Temperature 80 °F 89 °F 90 °F (2014)
Min Temperature 71 °F 67 °F 71 °F (2015)
Cooling Degree Days 10    
Growing Degree Days 26 (Base 50)    
Moisture  
Dew Point 66 °F    
Average Humidity 76    
Maximum Humidity 94    
Minimum Humidity 54    
Precipitation  
Precipitation 0.00 in - - ()
Sea Level Pressure  
Sea Level Pressure 30.16 in    
Wind  
Wind Speed 2 mph (ENE)    
Max Wind Speed 7 mph    
Max Gust Speed -    
Visibility 9 miles    
Events      
Averages and records for this station are not official NWS values.
T = Trace of Precipitation, MM = Missing Value Source: NWS Daily Summary

Daily Weather History Graph

Daily Weather History Graph

Search for Another Location

Airport or City:

Trip Planner

Search our weather history database for the weather conditions in past years. The results will help you decide how hot, cold, wet, or windy it might be!

Date:

Astronomy

Aug. 24, 2013 Rise Set
Actual Time 7:02 AM EDT 8:07 PM EDT
Civil Twilight 6:36 AM EDT 8:33 PM EDT
Nautical Twilight 6:06 AM EDT 9:03 PM EDT
Astronomical Twilight 5:34 AM EDT 9:35 PM EDT
Moon 10:18 PM EDT (8/24) 10:45 AM EDT (8/24)
Length of Visible Light 13h 56m
Length of Day
13h 05m
Waning Gibbous, 84% of the Moon is Illuminated
Aug 24
Waning Gibbous
Aug 28
Last Quarter
Sep 5
New
Sep 12
First Quarter
Sep 19
Full

Hourly Weather History & Observations

Time (EDT) Temp. Heat Index Dew Point Humidity Pressure Visibility Wind Dir Wind Speed Gust Speed Precip Events Conditions
12:15 AM 71.6 °F - 68.0 °F 88% 30.05 in 10.0 mi Calm Calm - N/A   Clear
12:35 AM 71.6 °F - 68.0 °F 88% 30.04 in 10.0 mi Calm Calm - N/A   Clear
12:55 AM 71.6 °F - 69.8 °F 94% 30.05 in 10.0 mi Calm Calm - N/A   Clear
1:15 AM 71.6 °F - 69.8 °F 94% 30.04 in 10.0 mi Calm Calm - N/A   Clear
1:35 AM 71.6 °F - 69.8 °F 94% 30.04 in 10.0 mi Calm Calm - N/A   Clear
1:55 AM 71.6 °F - 69.8 °F 94% 30.06 in 10.0 mi Calm Calm - N/A   Clear
2:15 AM 71.6 °F - 69.8 °F 94% 30.06 in 10.0 mi Calm Calm - N/A   Clear
2:35 AM 73.4 °F - 69.8 °F 88% 30.07 in 10.0 mi Calm Calm - N/A   Clear
2:55 AM 73.4 °F - 69.8 °F 88% 30.07 in 10.0 mi Calm Calm - N/A   Mostly Cloudy
3:15 AM 73.4 °F - 69.8 °F 88% 30.07 in 10.0 mi Calm Calm - N/A   Mostly Cloudy
3:35 AM 73.4 °F - 69.8 °F 88% 30.07 in 10.0 mi Calm Calm - N/A   Scattered Clouds
3:55 AM 73.4 °F - 69.8 °F 88% 30.07 in 10.0 mi Calm Calm - N/A   Scattered Clouds
4:15 AM 73.4 °F - 69.8 °F 88% 30.08 in 7.0 mi Calm Calm - N/A   Clear
4:35 AM 73.4 °F - 69.8 °F 88% 30.08 in 10.0 mi Calm Calm - N/A   Clear
4:55 AM 73.4 °F - 69.8 °F 88% 30.08 in 10.0 mi Calm Calm - N/A   Clear
5:15 AM 71.6 °F - 69.8 °F 94% 30.08 in 7.0 mi Calm Calm - N/A   Clear
5:35 AM 73.4 °F - 69.8 °F 88% 30.09 in 10.0 mi Calm Calm - N/A   Clear
5:55 AM 73.4 °F - 69.8 °F 88% 30.10 in 10.0 mi Calm Calm - N/A   Mostly Cloudy
6:15 AM 71.6 °F - 69.8 °F 94% 30.10 in 10.0 mi Calm Calm - N/A   Overcast
6:35 AM 71.6 °F - 69.8 °F 94% 30.11 in 10.0 mi Calm Calm - N/A   Overcast
6:55 AM 71.6 °F - 69.8 °F 94% 30.12 in 10.0 mi Calm Calm - N/A   Overcast
7:15 AM 71.6 °F - 69.8 °F 94% 30.12 in 10.0 mi Calm Calm - N/A   Mostly Cloudy
7:35 AM 71.6 °F - 69.8 °F 94% 30.13 in 10.0 mi Calm Calm - N/A   Scattered Clouds
7:55 AM 71.6 °F - 69.8 °F 94% 30.14 in 10.0 mi Calm Calm - N/A   Mostly Cloudy
8:15 AM 73.4 °F - 69.8 °F 88% 30.14 in 10.0 mi Calm Calm - N/A   Mostly Cloudy
8:35 AM 73.4 °F - 69.8 °F 88% 30.15 in 10.0 mi Calm Calm - N/A   Scattered Clouds
8:55 AM 73.4 °F - 69.8 °F 88% 30.16 in 10.0 mi NNE 3.5 mph - N/A   Scattered Clouds
9:15 AM 75.2 °F - 69.8 °F 83% 30.16 in 10.0 mi ENE 3.5 mph - N/A   Mostly Cloudy
9:35 AM 75.2 °F - 69.8 °F 83% 30.17 in 7.0 mi ENE 5.8 mph - N/A   Overcast
9:55 AM 75.2 °F - 69.8 °F 83% 30.17 in 7.0 mi ENE 5.8 mph - N/A   Overcast
10:15 AM 77.0 °F - 68.0 °F 74% 30.18 in 7.0 mi ENE 6.9 mph - N/A   Overcast
10:35 AM 77.0 °F - 69.8 °F 78% 30.19 in 10.0 mi ENE 6.9 mph - N/A   Overcast
10:55 AM 77.0 °F - 64.4 °F 65% 30.19 in 10.0 mi NE 6.9 mph - N/A   Overcast
11:15 AM 77.0 °F - 64.4 °F 65% 30.20 in 10.0 mi ENE 4.6 mph - N/A   Overcast
11:35 AM 77.0 °F - 64.4 °F 65% 30.20 in 10.0 mi ENE 5.8 mph - N/A   Overcast
11:55 AM 77.0 °F - 64.4 °F 65% 30.21 in 10.0 mi ENE 4.6 mph - N/A   Overcast
12:15 PM 77.0 °F - 64.4 °F 65% 30.21 in 10.0 mi ENE 4.6 mph - N/A   Overcast
12:35 PM 77.0 °F - 64.4 °F 65% 30.21 in 10.0 mi ENE 4.6 mph - N/A   Overcast
12:55 PM 77.0 °F - 64.4 °F 65% 30.20 in 7.0 mi ENE 5.8 mph - N/A   Overcast
1:15 PM 78.8 °F - 62.6 °F 57% 30.20 in 10.0 mi East 5.8 mph - N/A   Overcast
1:35 PM 78.8 °F - 62.6 °F 57% 30.20 in 10.0 mi ENE 3.5 mph - N/A   Overcast
1:55 PM 78.8 °F - 62.6 °F 57% 30.20 in 10.0 mi East 3.5 mph - N/A   Overcast
2:15 PM 78.8 °F - 64.4 °F 61% 30.20 in 10.0 mi East 3.5 mph - N/A   Overcast
2:35 PM 78.8 °F - 62.6 °F 57% 30.20 in 10.0 mi NE 5.8 mph - N/A   Overcast
2:55 PM 78.8 °F - 62.6 °F 57% 30.19 in 10.0 mi ENE 5.8 mph - N/A   Overcast
3:15 PM 78.8 °F - 62.6 °F 57% 30.19 in 10.0 mi ENE 6.9 mph - N/A   Overcast
3:35 PM 78.8 °F - 62.6 °F 57% 30.19 in 10.0 mi East 3.5 mph - N/A   Overcast
3:55 PM 78.8 °F - 62.6 °F 57% 30.20 in 10.0 mi East 5.8 mph - N/A   Overcast
4:15 PM 78.8 °F - 62.6 °F 57% 30.19 in 10.0 mi East 6.9 mph - N/A   Overcast
4:35 PM 78.8 °F - 62.6 °F 57% 30.19 in 10.0 mi East 3.5 mph - N/A   Overcast
4:55 PM 80.6 °F 81.8 °F 62.6 °F 54% 30.19 in 10.0 mi East 3.5 mph - N/A   Overcast
5:15 PM 78.8 °F - 60.8 °F 54% 30.19 in 7.0 mi East 4.6 mph - N/A   Overcast
5:35 PM 78.8 °F - 60.8 °F 54% 30.18 in 10.0 mi East 5.8 mph - N/A   Overcast
5:55 PM 78.8 °F - 60.8 °F 54% 30.18 in 10.0 mi East 5.8 mph - N/A   Overcast
6:15 PM 78.8 °F - 60.8 °F 54% 30.18 in 10.0 mi East 4.6 mph - N/A   Overcast
6:35 PM 78.8 °F - 60.8 °F 54% 30.19 in 10.0 mi ENE 5.8 mph - N/A   Overcast
6:55 PM 78.8 °F - 62.6 °F 57% 30.19 in 10.0 mi NE 3.5 mph - N/A   Overcast
7:15 PM 78.8 °F - 62.6 °F 57% 30.19 in 10.0 mi East 3.5 mph - N/A   Overcast
7:35 PM 78.8 °F - 62.6 °F 57% 30.19 in 10.0 mi ENE 3.5 mph - N/A   Overcast
7:55 PM 77.0 °F - 62.6 °F 61% 30.19 in 10.0 mi NE 3.5 mph - N/A   Overcast
8:15 PM 77.0 °F - 62.6 °F 61% 30.19 in 10.0 mi Calm Calm - N/A   Mostly Cloudy
8:35 PM 77.0 °F - 62.6 °F 61% 30.19 in 10.0 mi Calm Calm - N/A   Scattered Clouds
8:55 PM 77.0 °F - 64.4 °F 65% 30.20 in 10.0 mi Calm Calm - N/A   Mostly Cloudy
9:15 PM 73.4 °F - 64.4 °F 73% 30.21 in 10.0 mi Calm Calm - N/A   Scattered Clouds
9:35 PM 73.4 °F - 68.0 °F 83% 30.22 in 10.0 mi Calm Calm - N/A   Clear
9:55 PM 71.6 °F - 68.0 °F 88% 30.22 in 7.0 mi Calm Calm - N/A   Clear
10:15 PM 71.6 °F - 68.0 °F 88% 30.23 in 7.0 mi Calm Calm - N/A   Clear
10:35 PM 71.6 °F - 68.0 °F 88% 30.24 in 7.0 mi Calm Calm - N/A   Clear
10:55 PM 71.6 °F - 68.0 °F 88% 30.24 in 7.0 mi Calm Calm - N/A   Clear
11:15 PM 71.6 °F - 68.0 °F 88% 30.24 in 7.0 mi Calm Calm - N/A   Clear
11:35 PM 71.6 °F - 69.8 °F 94% 30.24 in 7.0 mi Calm Calm - N/A   Clear
11:55 PM 71.6 °F - 68.0 °F 88% 30.24 in 7.0 mi Calm Calm - N/A   Clear